Location: B�rgermoos
(47.6500°N, 9.0667°E)
Time: 04:54:31
(UTC+00:00)

Vanguard 2 Rocket - Pass Details

Date: 04 August 2021
Orbit: 556 x 3323 km, 32.9° (Epoch: 27 September)

Event Time Altitude Azimuth Distance (km) Brightness Sun altitude
Rises 07:17:43 0° 232° (SW) 2,859 9.1 30.7°
Reaches altitude 10° 07:21:49 10° 192° (SSW) 1,828 8.5 31.3°
Maximum altitude 07:22:46 11° 178° (S) 1,781 8.7 31.5°
Drops below altitude 10° 07:23:42 10° 164° (SSE) 1,831 8.9 31.6°
Sets 07:27:52 0° 124° (SE) 2,895 10.4 32.3°
